Volver al catálogo

STARLINK-32010

ActivoComunicacionesVLEO
NORAD 60279·PAYLOAD·🇺🇸 United States

Lanzado Jul 28, 2024 desde Cape Canaveral Space Force Station

Loading…

Próximos Pases (próximas 24 horas)

TLE

ActualizadoSource: CelesTrak SupGP

Época: Sep 14, 2026, 13:51 UTC

1 60279C 24132B   26257.57756944 -.00014097  00000+0 -45341-3 0  2574
2 60279  53.1567 253.9610 0001315  84.9340 347.5163 15.31703588    18

Sigue STARLINK-32010 en tiempo real con AllMySat

Download on the App Store